Flag for Norway Weather past 2 weeks in Nesodden, Norway

Now
55 °F

Fog.


Feels Like: 49 °F
Forecast: 58 / 72 °F
Wind: 33 mph from South

Location: Oslo / Fornebu

Current Time: Jul 2, 2015 at 8:45:32 PM

Latest Report: Jul 2, 2015 at 7:50 PM


Visibility: 3 mi

Pressure: 30.01 "Hg

Humidity: 94%

Dew point: 54 °F

Location of NesoddenLocation

Historic Weather in Nesodden — Graph

°F

Nesodden temperature yesterday

Maximum temperature yesterday: 57 °F (at 11:50 AM)
Minimum temperature yesterday: 54 °F (at 12:20 AM)
Average temperature yesterday: 56 °F

Past Weeks' High & Low Weather Summary

 TemperatureHumidityPressure
High59 °F (Jul 2, 4:20 AM)100% (Jun 17, 9:20 PM)30.12 "Hg (Jun 17, 9:20 PM)
Low46 °F (Jun 19, 4:50 AM)63% (Jun 24, 2:50 PM)29.65 "Hg (Jun 17, 7:20 PM)
Average52 °F88%29.95 "Hg
* Reported Jun 17 7:20 PM — Jul 2 7:20 PM, Nesodden, Weather by CustomWeather, © 2015

Note: Actual official high and low records may vary slightly from our data, if they occured in-between our weather recording intervals... More about our weather records

Advertising

Nesodden weather history for previous 24 hours

 ConditionsComfort  
Time TempWeatherWind HumidityBarometerVisibility
7:20 PM
Thu, Jul 2
55 °FLow clouds.35 mph94%30.01 "Hg4 mi
6:50 PM55 °FLow clouds.37 mph94%30.01 "Hg5 mi
6:20 PM57 °FOvercast.39 mph88%30.01 "Hg6 mi
5:50 PM57 °FPartly sunny.44 mph88%29.98 "HgN/A
5:20 PM57 °FOvercast.45 mph88%29.98 "HgN/A
4:50 PM59 °FPartly sunny.45 mph82%29.98 "HgN/A
4:20 PM59 °FScattered clouds.46 mph82%29.98 "HgN/A
3:50 PM59 °FScattered clouds.45 mph82%29.98 "HgN/A
3:20 PM59 °FScattered clouds.44 mph82%29.98 "HgN/A
2:50 PM59 °FPassing clouds.43 mph82%30.01 "HgN/A
2:20 PM59 °FSprinkles. Passing clouds.41 mph82%30.01 "HgN/A
1:50 PM59 °FPartly sunny.40 mph82%30.01 "HgN/A
1:20 PM59 °FPassing clouds.45 mph82%30.01 "HgN/A
12:50 PM59 °FPassing clouds.39 mph82%30.04 "HgN/A
12:20 PM59 °FPassing clouds.41 mph82%30.01 "HgN/A
11:50 AM59 °FPassing clouds.47 mph82%30.01 "HgN/A
11:20 AM59 °FPassing clouds.50 mph82%30.01 "HgN/A
10:50 AM59 °FScattered clouds.50 mph82%30.01 "HgN/A
10:20 AM59 °FScattered clouds.50 mph82%29.98 "HgN/A
9:50 AM59 °FScattered clouds.44 mph82%30.01 "HgN/A
9:20 AM59 °FScattered clouds.48 mph82%30.01 "HgN/A
8:50 AM59 °FPassing clouds.45 mph82%30.04 "HgN/A
8:20 AM59 °FScattered clouds.48 mph82%30.01 "HgN/A
7:50 AM59 °FLight rain. Passing clouds.47 mph82%30.04 "HgN/A
7:20 AM59 °FPassing clouds.50 mph82%30.01 "HgN/A
6:50 AM59 °FPartly sunny.51 mph82%30.01 "HgN/A
6:20 AM59 °FPartly sunny.48 mph82%30.01 "HgN/A
5:50 AM59 °FPartly sunny.46 mph77%30.01 "HgN/A
5:20 AM59 °FPartly sunny.50 mph77%30.01 "HgN/A
4:50 AM59 °FPassing clouds.48 mph82%30.04 "HgN/A
4:20 AM59 °FPassing clouds.48 mph82%30.01 "HgN/A
3:50 AM57 °FPassing clouds.48 mph88%30.04 "HgN/A
3:20 AM57 °FPassing clouds.46 mph82%30.04 "HgN/A
2:50 AM57 °FPassing clouds.46 mph82%30.07 "HgN/A
2:20 AM57 °FPassing clouds.45 mph82%30.07 "HgN/A
1:50 AM57 °FPassing clouds.41 mph82%30.07 "HgN/A
1:20 AM57 °FPassing clouds.44 mph82%30.07 "HgN/A
12:50 AM57 °FPassing clouds.40 mph82%30.07 "HgN/A
12:20 AM57 °FPassing clouds.39 mph82%30.07 "HgN/A
11:50 PM
Wed, Jul 1
57 °FPassing clouds.40 mph82%30.07 "HgN/A
10:50 PM57 °FPartly sunny.48 mph82%30.07 "HgN/A
10:20 PM57 °FPartly sunny.48 mph82%30.09 "HgN/A
9:50 PM55 °FScattered clouds.45 mph88%30.07 "HgN/A
9:20 PM57 °FPassing clouds.43 mph82%30.07 "HgN/A
8:50 PM57 °FPassing clouds.40 mph82%30.07 "HgN/A
8:20 PM57 °FCool.40 mph82%30.07 "HgN/A
Weather by CustomWeather, © 2015

See weather overviewHow to use our weather pages